[Date Prev][Date Next][Thread Prev][Thread Next] - [Date Index][Thread Index][Author Index]

2 Line ISS Keps 4-9



ISS
1 25544U 98067A   06098.79245566  .00021324  00000-0  14347-3 0  6943
2 25544 051.6412 184.6571 0009293 090.0255 006.8748 15.75067202422227
----
Via the sarex mailing list at AMSAT.ORG courtesy of AMSAT-NA.
To unsubscribe, send "unsubscribe sarex" to Majordomo@amsat.org



AMSAT Top AMSAT Home